Hinesville, GA

11:00 PM EDT on September 27, 2016 (GMT -0400)
Wright Army Air Field

Weather History for KLHW - August, 2015

Change the Weather History Date:

Tuesday, August 11, 2015

  Actual Average Record
Temperature  
Mean Temperature 81 °F -  
Max Temperature 89 °F 90 °F 99 °F (2011)
Min Temperature 73 °F 71 °F 66 °F (1989)
Cooling Degree Days 16    
Growing Degree Days 31 (Base 50)    
Moisture  
Dew Point 73 °F    
Average Humidity 77    
Maximum Humidity 92    
Minimum Humidity 62    
Precipitation  
Precipitation 0.05 in - - ()
Sea Level Pressure  
Sea Level Pressure 29.94 in    
Wind  
Wind Speed 3 mph (WSW)    
Max Wind Speed 14 mph    
Max Gust Speed 22 mph    
Visibility 10 miles    
Events Rain , Thunderstorm    
Averages and records for this station are not official NWS values.
T = Trace of Precipitation, MM = Missing Value Source: NWS Daily Summary

Daily Weather History Graph

Daily Weather History Graph

Search for Another Location

Airport or City:

Trip Planner

Search our weather history database for the weather conditions in past years. The results will help you decide how hot, cold, wet, or windy it might be!

Date:

Astronomy

Aug. 11, 2015 Rise Set
Actual Time 6:48 AM EDT 8:14 PM EDT
Civil Twilight 6:22 AM EDT 8:40 PM EDT
Nautical Twilight 5:51 AM EDT 9:11 PM EDT
Astronomical Twilight 5:18 AM EDT 9:43 PM EDT
Moon 4:07 AM EDT (8/11) 6:05 PM EDT (8/11)
Length of Visible Light 14h 17m
Length of Day
13h 26m
Waning Crescent, 9% of the Moon is Illuminated
Aug 11
Waning Crescent
Aug 14
New
Aug 22
First Quarter
Aug 29
Full
Sep 5
Last Quarter

Hourly Weather History & Observations

Time (EDT) Temp. Heat Index Dew Point Humidity Pressure Visibility Wind Dir Wind Speed Gust Speed Precip Events Conditions
12:58 AM 75.6 °F - 71.4 °F 87% 29.97 in 10.0 mi Calm Calm - N/A   Clear
1:58 AM 74.3 °F - 71.2 °F 90% 29.96 in 10.0 mi Calm Calm - N/A   Clear
2:58 AM 74.5 °F - 71.8 °F 91% 29.95 in 10.0 mi Calm Calm - N/A   Clear
3:58 AM 73.9 °F - 71.2 °F 91% 29.94 in 10.0 mi Calm Calm - N/A   Clear
4:58 AM 73.9 °F - 71.6 °F 92% 29.93 in 10.0 mi Calm Calm - N/A   Clear
5:58 AM 73.4 °F - 71.1 °F 92% 29.94 in 10.0 mi Calm Calm - N/A   Clear
6:58 AM 74.1 °F - 71.4 °F 91% 29.96 in 10.0 mi Calm Calm - N/A   Clear
7:58 AM 75.6 °F - 72.3 °F 90% 29.97 in 10.0 mi SW 2.3 mph - N/A   Scattered Clouds
8:58 AM 77.2 °F - 72.3 °F 85% 29.99 in 10.0 mi WSW 4.6 mph - N/A   Mostly Cloudy
9:58 AM 81.0 °F 85.6 °F 72.9 °F 76% 29.98 in 9.0 mi SW 3.5 mph - N/A   Partly Cloudy
10:58 AM 84.0 °F 89.6 °F 72.1 °F 67% 29.99 in 10.0 mi WSW 5.8 mph - N/A   Partly Cloudy
11:58 AM 88.3 °F 97.4 °F 74.3 °F 63% 29.98 in 10.0 mi SW 6.9 mph - N/A   Scattered Clouds
12:58 PM 86.7 °F 95.0 °F 73.9 °F 66% 29.97 in 10.0 mi WSW 5.8 mph - N/A   Scattered Clouds
1:58 PM 87.6 °F 97.1 °F 75.2 °F 66% 29.96 in 10.0 mi SW 4.6 mph - N/A   Scattered Clouds
2:35 PM 89.6 °F 99.8 °F 75.2 °F 62% 29.93 in 10.0 mi West 8.1 mph - N/A   Light Drizzle
2:43 PM 87.8 °F 97.6 °F 75.2 °F 66% 29.93 in 10.0 mi WNW 6.9 mph - N/A Rain , Thunderstorm Light Thunderstorms and Rain
2:45 PM 87.8 °F 97.6 °F 75.2 °F 66% 29.93 in 10.0 mi WNW 4.6 mph - N/A Thunderstorm Thunderstorm
2:57 PM 84.2 °F 89.6 °F 71.6 °F 66% 29.94 in 7.0 mi West 13.8 mph 21.9 mph N/A Rain , Thunderstorm Light Thunderstorms and Rain
2:58 PM 84.2 °F 89.6 °F 71.6 °F 66% 29.95 in 7.0 mi WNW 13.8 mph 21.9 mph 0.00 in Rain , Thunderstorm Light Thunderstorms and Rain
3:12 PM 78.8 °F - 73.4 °F 83% 29.93 in 7.0 mi WNW 8.1 mph 17.3 mph N/A Rain Heavy Rain
3:43 PM 82.4 °F 88.2 °F 73.4 °F 74% 29.92 in 10.0 mi West 5.8 mph - N/A   Mostly Cloudy
3:58 PM 82.6 °F 88.1 °F 72.9 °F 72% 29.92 in 10.0 mi West 6.9 mph - 0.05 in   Mostly Cloudy
4:58 PM 87.3 °F 96.3 °F 74.8 °F 66% 29.92 in 10.0 mi WSW 10.4 mph - N/A   Partly Cloudy
5:58 PM 86.4 °F 94.2 °F 73.6 °F 66% 29.91 in 10.0 mi West 3.5 mph - N/A   Scattered Clouds
6:58 PM 85.1 °F 92.9 °F 74.5 °F 70% 29.91 in 10.0 mi West 1.2 mph - N/A   Clear
7:58 PM 83.8 °F 91.4 °F 74.7 °F 74% 29.92 in 10.0 mi Calm Calm - N/A   Mostly Cloudy
8:58 PM 82.6 °F 89.4 °F 74.8 °F 77% 29.93 in 10.0 mi Calm Calm - N/A   Overcast
9:58 PM 81.0 °F 86.7 °F 75.0 °F 82% 29.94 in 10.0 mi Calm Calm - N/A   Scattered Clouds
10:58 PM 80.2 °F 84.9 °F 73.9 °F 81% 29.95 in 10.0 mi Calm Calm - N/A   Mostly Cloudy
11:43 PM 80.6 °F 85.4 °F 73.4 °F 79% 29.93 in 10.0 mi SW 4.6 mph - N/A   Light Drizzle
11:58 PM 79.9 °F - 73.4 °F 80% 29.94 in 10.0 mi SSW 2.3 mph - 0.00 in Rain Light Rain
11:59 PM 80.6 °F 85.4 °F 73.4 °F 79% 29.93 in 10.0 mi SSW 2.3 mph - N/A   Mostly Cloudy